Time,TemperatureF,DewpointF,PressureIn,WindDirection,WindDirectionDegrees,WindSpeedMPH,WindSpeedGustMPH,Humidity,HourlyPrecipIn,Conditions,Clouds,dailyrainin,SolarRadiationWatts/m^2,SoftwareType,DateUTC
2013-03-31 00:01:00,45.0,25.0,-100.00,West,277,6.0,8.0,46,0.00,,,0.00,0.000000,,2013-03-31 06:01:00,
2013-03-31 00:12:00,45.0,25.0,-100.00,West,277,6.0,8.0,46,0.00,,,0.00,0.000000,,2013-03-31 06:12:00,
2013-03-31 00:22:00,45.0,25.0,-100.00,West,277,6.0,8.0,46,0.00,,,0.00,0.000000,,2013-03-31 06:22:00,
2013-03-31 00:30:00,41.0,23.0,-100.00,West,268,5.0,11.0,49,0.00,,,0.00,0.000000,,2013-03-31 06:30:00,
2013-03-31 00:52:00,41.0,23.0,-100.00,West,268,5.0,11.0,49,0.00,,,0.00,0.000000,,2013-03-31 06:52:00,
2013-03-31 01:02:00,41.0,23.0,-100.00,West,268,5.0,11.0,49,0.00,,,0.00,0.000000,,2013-03-31 07:02:00,
2013-03-31 01:12:00,41.0,23.0,-100.00,West,268,5.0,11.0,49,0.00,,,0.00,0.000000,,2013-03-31 07:12:00,
2013-03-31 01:22:00,41.0,23.0,-100.00,West,268,5.0,11.0,49,0.00,,,0.00,0.000000,,2013-03-31 07:22:00,
2013-03-31 01:30:00,39.0,24.0,-100.00,SSW,201,2.0,9.0,54,0.00,,,0.00,0.000000,,2013-03-31 07:30:00,
2013-03-31 01:53:00,39.0,24.0,-100.00,SSW,201,2.0,9.0,54,0.00,,,0.00,0.000000,,2013-03-31 07:53:00,
2013-03-31 02:02:00,39.0,24.0,-100.00,SSW,201,2.0,9.0,54,0.00,,,0.00,0.000000,,2013-03-31 08:02:00,
2013-03-31 02:12:00,39.0,24.0,-100.00,SSW,201,2.0,9.0,54,0.00,,,0.00,0.000000,,2013-03-31 08:12:00,
2013-03-31 02:22:00,39.0,24.0,-100.00,SSW,201,2.0,9.0,54,0.00,,,0.00,0.000000,,2013-03-31 08:22:00,
2013-03-31 02:30:00,35.0,24.0,-100.00,ESE,109,2.0,9.0,63,0.00,,,0.00,0.000000,,2013-03-31 08:30:00,
2013-03-31 02:52:00,35.0,24.0,-100.00,ESE,109,2.0,9.0,63,0.00,,,0.00,0.000000,,2013-03-31 08:52:00,
2013-03-31 03:02:00,35.0,24.0,-100.00,ESE,109,2.0,9.0,63,0.00,,,0.00,0.000000,,2013-03-31 09:02:00,
2013-03-31 03:12:00,35.0,24.0,-100.00,ESE,109,2.0,9.0,63,0.00,,,0.00,0.000000,,2013-03-31 09:12:00,
2013-03-31 03:22:00,35.0,24.0,-100.00,ESE,109,2.0,9.0,63,0.00,,,0.00,0.000000,,2013-03-31 09:22:00,
2013-03-31 03:30:00,31.0,23.0,-100.00,West,266,2.0,4.0,72,0.00,,,0.00,0.000000,,2013-03-31 09:30:00,
2013-03-31 03:53:00,31.0,23.0,-100.00,West,266,2.0,4.0,72,0.00,,,0.00,0.000000,,2013-03-31 09:53:00,
2013-03-31 04:03:00,31.0,23.0,-100.00,West,266,2.0,4.0,72,0.00,,,0.00,0.000000,,2013-03-31 10:03:00,
2013-03-31 04:12:00,31.0,23.0,-100.00,West,266,2.0,4.0,72,0.00,,,0.00,0.000000,,2013-03-31 10:12:00,
2013-03-31 04:30:00,33.0,25.0,-100.00,WSW,257,4.0,9.0,72,0.00,,,0.00,0.000000,,2013-03-31 10:30:00,
2013-03-31 04:53:00,33.0,25.0,-100.00,WSW,257,4.0,9.0,72,0.00,,,0.00,0.000000,,2013-03-31 10:53:00,
2013-03-31 05:02:00,33.0,25.0,-100.00,WSW,257,4.0,9.0,72,0.00,,,0.00,0.000000,,2013-03-31 11:02:00,
2013-03-31 05:12:00,33.0,25.0,-100.00,WSW,257,4.0,9.0,72,0.00,,,0.00,0.000000,,2013-03-31 11:12:00,
2013-03-31 05:22:00,33.0,25.0,-100.00,WSW,257,4.0,9.0,72,0.00,,,0.00,0.000000,,2013-03-31 11:22:00,
2013-03-31 05:30:00,33.0,24.0,-100.00,East,90,3.0,9.0,69,0.00,,,0.00,0.000000,,2013-03-31 11:30:00,
2013-03-31 05:52:00,33.0,24.0,-100.00,East,90,3.0,9.0,69,0.00,,,0.00,0.000000,,2013-03-31 11:52:00,
2013-03-31 06:02:00,33.0,24.0,-100.00,East,90,3.0,9.0,69,0.00,,,0.00,0.000000,,2013-03-31 12:02:00,
2013-03-31 06:12:00,33.0,24.0,-100.00,East,90,3.0,9.0,69,0.00,,,0.00,0.000000,,2013-03-31 12:12:00,
2013-03-31 06:22:00,33.0,24.0,-100.00,East,90,3.0,9.0,69,0.00,,,0.00,0.000000,,2013-03-31 12:22:00,
2013-03-31 06:30:00,31.0,24.0,-100.00,WSW,245,5.0,7.0,74,0.00,,,0.00,0.000000,,2013-03-31 12:30:00,
2013-03-31 06:53:00,31.0,24.0,-100.00,WSW,245,5.0,7.0,74,0.00,,,0.00,0.000000,,2013-03-31 12:53:00,
2013-03-31 07:02:00,31.0,24.0,-100.00,WSW,245,5.0,7.0,74,0.00,,,0.00,0.000000,,2013-03-31 13:02:00,
2013-03-31 07:12:00,31.0,24.0,-100.00,WSW,245,5.0,7.0,74,0.00,,,0.00,0.000000,,2013-03-31 13:12:00,
2013-03-31 07:22:00,31.0,24.0,-100.00,WSW,245,5.0,7.0,74,0.00,,,0.00,0.000000,,2013-03-31 13:22:00,
2013-03-31 07:30:00,29.0,23.0,-100.00,WNW,284,2.0,6.0,79,0.00,,,0.00,5.000000,,2013-03-31 13:30:00,
2013-03-31 08:02:00,29.0,23.0,-100.00,WNW,284,2.0,6.0,79,0.00,,,0.00,5.000000,,2013-03-31 14:02:00,
2013-03-31 08:11:00,29.0,23.0,-100.00,WNW,284,2.0,6.0,79,0.00,,,0.00,5.000000,,2013-03-31 14:11:00,
2013-03-31 08:22:00,29.0,23.0,-100.00,WNW,284,2.0,6.0,79,0.00,,,0.00,5.000000,,2013-03-31 14:22:00,
2013-03-31 08:30:00,36.0,28.0,-100.00,South,181,3.0,6.0,72,0.00,,,0.00,89.000000,,2013-03-31 14:30:00,
2013-03-31 08:52:00,36.0,28.0,-100.00,South,181,3.0,6.0,72,0.00,,,0.00,89.000000,,2013-03-31 14:52:00,
2013-03-31 09:02:00,36.0,28.0,-100.00,South,181,3.0,6.0,72,0.00,,,0.00,89.000000,,2013-03-31 15:02:00,
2013-03-31 09:12:00,36.0,28.0,-100.00,South,181,3.0,6.0,72,0.00,,,0.00,89.000000,,2013-03-31 15:12:00,
2013-03-31 09:22:00,36.0,28.0,-100.00,South,181,3.0,6.0,72,0.00,,,0.00,89.000000,,2013-03-31 15:22:00,
2013-03-31 09:30:00,42.0,32.0,-100.00,WSW,252,4.0,6.0,67,0.00,,,0.00,192.000000,,2013-03-31 15:30:00,
2013-03-31 09:54:00,42.0,32.0,-100.00,WSW,252,4.0,6.0,67,0.00,,,0.00,192.000000,,2013-03-31 15:54:00,
2013-03-31 10:03:00,42.0,32.0,-100.00,WSW,252,4.0,6.0,67,0.00,,,0.00,192.000000,,2013-03-31 16:03:00,
2013-03-31 10:13:00,42.0,32.0,-100.00,WSW,252,4.0,6.0,67,0.00,,,0.00,192.000000,,2013-03-31 16:13:00,
2013-03-31 10:22:00,42.0,32.0,-100.00,WSW,252,4.0,6.0,67,0.00,,,0.00,192.000000,,2013-03-31 16:22:00,
2013-03-31 10:30:00,53.0,35.0,-100.00,East,88,4.0,8.0,51,0.00,,,0.00,583.000000,,2013-03-31 16:30:00,
2013-03-31 10:53:00,53.0,35.0,-100.00,East,88,4.0,8.0,51,0.00,,,0.00,583.000000,,2013-03-31 16:53:00,
2013-03-31 11:02:00,53.0,35.0,-100.00,East,88,4.0,8.0,51,0.00,,,0.00,583.000000,,2013-03-31 17:02:00,
2013-03-31 11:12:00,53.0,35.0,-100.00,East,88,4.0,8.0,51,0.00,,,0.00,583.000000,,2013-03-31 17:12:00,
2013-03-31 11:22:00,53.0,35.0,-100.00,East,88,4.0,8.0,51,0.00,,,0.00,583.000000,,2013-03-31 17:22:00,
2013-03-31 11:30:00,54.0,27.0,-100.00,ENE,57,8.0,17.0,35,0.00,,,0.00,618.000000,,2013-03-31 17:30:00,
2013-03-31 11:52:00,54.0,27.0,-100.00,ENE,57,8.0,17.0,35,0.00,,,0.00,618.000000,,2013-03-31 17:52:00,
2013-03-31 12:02:00,54.0,27.0,-100.00,ENE,57,8.0,17.0,35,0.00,,,0.00,618.000000,,2013-03-31 18:02:00,
2013-03-31 12:12:00,54.0,27.0,-100.00,ENE,57,8.0,17.0,35,0.00,,,0.00,618.000000,,2013-03-31 18:12:00,
2013-03-31 12:22:00,54.0,27.0,-100.00,ENE,57,8.0,17.0,35,0.00,,,0.00,618.000000,,2013-03-31 18:22:00,
2013-03-31 12:30:00,56.0,28.0,-100.00,East,97,12.0,17.0,34,0.00,,,0.00,516.000000,,2013-03-31 18:30:00,
2013-03-31 12:53:00,56.0,28.0,-100.00,East,97,12.0,17.0,34,0.00,,,0.00,516.000000,,2013-03-31 18:53:00,
2013-03-31 13:03:00,56.0,28.0,-100.00,East,97,12.0,17.0,34,0.00,,,0.00,516.000000,,2013-03-31 19:03:00,
2013-03-31 13:12:00,56.0,28.0,-100.00,East,97,12.0,17.0,34,0.00,,,0.00,516.000000,,2013-03-31 19:12:00,
2013-03-31 13:22:00,56.0,28.0,-100.00,East,97,12.0,17.0,34,0.00,,,0.00,516.000000,,2013-03-31 19:22:00,
2013-03-31 13:30:00,54.0,26.0,-100.00,ENE,73,7.0,16.0,33,0.00,,,0.00,354.000000,,2013-03-31 19:30:00,
2013-03-31 13:54:00,54.0,26.0,-100.00,ENE,73,7.0,16.0,33,0.00,,,0.00,354.000000,,2013-03-31 19:54:00,
2013-03-31 14:02:00,54.0,26.0,-100.00,ENE,73,7.0,16.0,33,0.00,,,0.00,354.000000,,2013-03-31 20:02:00,
2013-03-31 14:12:00,54.0,26.0,-100.00,ENE,73,7.0,16.0,33,0.00,,,0.00,354.000000,,2013-03-31 20:12:00,
2013-03-31 14:22:00,54.0,26.0,-100.00,ENE,73,7.0,16.0,33,0.00,,,0.00,354.000000,,2013-03-31 20:22:00,
2013-03-31 14:30:00,55.0,25.0,-100.00,East,82,9.0,19.0,31,0.00,,,0.00,402.000000,,2013-03-31 20:30:00,
2013-03-31 14:53:00,55.0,25.0,-100.00,East,82,9.0,19.0,31,0.00,,,0.00,402.000000,,2013-03-31 20:53:00,
2013-03-31 15:02:00,55.0,25.0,-100.00,East,82,9.0,19.0,31,0.00,,,0.00,402.000000,,2013-03-31 21:02:00,
2013-03-31 15:12:00,55.0,25.0,-100.00,East,82,9.0,19.0,31,0.00,,,0.00,402.000000,,2013-03-31 21:12:00,
2013-03-31 15:22:00,55.0,25.0,-100.00,East,82,9.0,19.0,31,0.00,,,0.00,402.000000,,2013-03-31 21:22:00,
2013-03-31 15:30:00,57.0,27.0,-100.00,East,88,13.0,21.0,31,0.00,,,0.00,622.000000,,2013-03-31 21:30:00,
2013-03-31 15:53:00,57.0,27.0,-100.00,East,88,13.0,21.0,31,0.00,,,0.00,622.000000,,2013-03-31 21:53:00,
2013-03-31 16:03:00,57.0,27.0,-100.00,East,88,13.0,21.0,31,0.00,,,0.00,622.000000,,2013-03-31 22:03:00,
2013-03-31 16:13:00,57.0,27.0,-100.00,East,88,13.0,21.0,31,0.00,,,0.00,622.000000,,2013-03-31 22:13:00,
2013-03-31 16:23:00,57.0,27.0,-100.00,East,88,13.0,21.0,31,0.00,,,0.00,622.000000,,2013-03-31 22:23:00,
2013-03-31 16:30:00,53.0,24.0,-100.00,ESE,114,13.0,20.0,32,0.00,,,0.00,379.000000,,2013-03-31 22:30:00,
2013-03-31 16:53:00,53.0,24.0,-100.00,ESE,114,13.0,20.0,32,0.00,,,0.00,379.000000,,2013-03-31 22:53:00,
2013-03-31 17:02:00,53.0,24.0,-100.00,ESE,114,13.0,20.0,32,0.00,,,0.00,379.000000,,2013-03-31 23:02:00,
2013-03-31 17:12:00,53.0,24.0,-100.00,ESE,114,13.0,20.0,32,0.00,,,0.00,379.000000,,2013-03-31 23:12:00,
2013-03-31 17:22:00,53.0,24.0,-100.00,ESE,114,13.0,20.0,32,0.00,,,0.00,379.000000,,2013-03-31 23:22:00,
2013-03-31 17:30:00,55.0,26.0,-100.00,ENE,75,10.0,17.0,32,0.00,,,0.00,358.000000,,2013-03-31 23:30:00,
2013-03-31 17:53:00,55.0,26.0,-100.00,ENE,75,10.0,17.0,32,0.00,,,0.00,358.000000,,2013-03-31 23:53:00,
2013-03-31 18:02:00,55.0,26.0,-100.00,ENE,75,10.0,17.0,32,0.00,,,0.00,358.000000,,2013-04-01 00:02:00,
2013-03-31 18:12:00,55.0,26.0,-100.00,ENE,75,10.0,17.0,32,0.00,,,0.00,358.000000,,2013-04-01 00:12:00,
2013-03-31 18:22:00,55.0,26.0,-100.00,ENE,75,10.0,17.0,32,0.00,,,0.00,358.000000,,2013-04-01 00:22:00,
2013-03-31 18:30:00,54.0,24.0,-100.00,NE,54,8.0,16.0,31,0.00,,,-99.99,420.000000,,2013-04-01 00:30:00,
2013-03-31 18:53:00,54.0,24.0,-100.00,NE,54,8.0,16.0,31,0.00,,,-99.99,420.000000,,2013-04-01 00:53:00,
2013-03-31 19:02:00,54.0,24.0,-100.00,NE,54,8.0,16.0,31,0.00,,,-99.99,420.000000,,2013-04-01 01:02:00,
2013-03-31 19:12:00,54.0,24.0,-100.00,NE,54,8.0,16.0,31,0.00,,,-99.99,420.000000,,2013-04-01 01:12:00,
2013-03-31 19:22:00,54.0,24.0,-100.00,NE,54,8.0,16.0,31,0.00,,,-99.99,420.000000,,2013-04-01 01:22:00,
2013-03-31 19:30:00,51.0,22.0,-100.00,ENE,62,8.0,16.0,32,0.00,,,0.00,194.000000,,2013-04-01 01:30:00,
2013-03-31 19:53:00,51.0,22.0,-100.00,ENE,62,8.0,16.0,32,0.00,,,0.00,194.000000,,2013-04-01 01:53:00,
2013-03-31 20:02:00,51.0,22.0,-100.00,ENE,62,8.0,16.0,32,0.00,,,0.00,194.000000,,2013-04-01 02:02:00,
2013-03-31 20:12:00,51.0,22.0,-100.00,ENE,62,8.0,16.0,32,0.00,,,0.00,194.000000,,2013-04-01 02:12:00,
2013-03-31 20:22:00,51.0,22.0,-100.00,ENE,62,8.0,16.0,32,0.00,,,0.00,194.000000,,2013-04-01 02:22:00,
2013-03-31 20:30:00,48.0,22.0,-100.00,ENE,75,8.0,15.0,35,0.00,,,0.00,7.000000,,2013-04-01 02:30:00,
2013-03-31 20:53:00,48.0,22.0,-100.00,ENE,75,8.0,15.0,35,0.00,,,0.00,7.000000,,2013-04-01 02:53:00,
2013-03-31 21:02:00,48.0,22.0,-100.00,ENE,75,8.0,15.0,35,0.00,,,0.00,7.000000,,2013-04-01 03:02:00,
2013-03-31 21:12:00,48.0,22.0,-100.00,ENE,75,8.0,15.0,35,0.00,,,0.00,7.000000,,2013-04-01 03:12:00,
2013-03-31 21:22:00,48.0,22.0,-100.00,ENE,75,8.0,15.0,35,0.00,,,0.00,7.000000,,2013-04-01 03:22:00,
2013-03-31 21:30:00,47.0,23.0,-100.00,ENE,64,9.0,14.0,38,0.00,,,0.00,0.000000,,2013-04-01 03:30:00,
2013-03-31 21:53:00,47.0,23.0,-100.00,ENE,64,9.0,14.0,38,0.00,,,0.00,0.000000,,2013-04-01 03:53:00,
2013-03-31 22:02:00,47.0,23.0,-100.00,ENE,64,9.0,14.0,38,0.00,,,0.00,0.000000,,2013-04-01 04:02:00,
2013-03-31 22:13:00,47.0,23.0,-100.00,ENE,64,9.0,14.0,38,0.00,,,0.00,0.000000,,2013-04-01 04:13:00,
2013-03-31 22:23:00,47.0,23.0,-100.00,ENE,64,9.0,14.0,38,0.00,,,0.00,0.000000,,2013-04-01 04:23:00,
2013-03-31 22:30:00,42.0,21.0,-100.00,ESE,113,8.0,14.0,42,0.00,,,0.00,0.000000,,2013-04-01 04:30:00,
2013-03-31 22:53:00,42.0,21.0,-100.00,ESE,113,8.0,14.0,42,0.00,,,0.00,0.000000,,2013-04-01 04:53:00,
2013-03-31 23:02:00,42.0,21.0,-100.00,ESE,113,8.0,14.0,42,0.00,,,0.00,0.000000,,2013-04-01 05:02:00,
2013-03-31 23:12:00,42.0,21.0,-100.00,ESE,113,8.0,14.0,42,0.00,,,0.00,0.000000,,2013-04-01 05:12:00,
2013-03-31 23:22:00,42.0,21.0,-100.00,ESE,113,8.0,14.0,42,0.00,,,0.00,0.000000,,2013-04-01 05:22:00,
2013-03-31 23:30:00,40.0,23.0,-100.00,ESE,103,5.0,12.0,50,0.00,,,0.00,0.000000,,2013-04-01 05:30:00,
2013-03-31 23:53:00,40.0,23.0,-100.00,ESE,103,5.0,12.0,50,0.00,,,0.00,0.000000,,2013-04-01 05:53:00,